Weather History for KYIP - March, 2014

Change the Weather History Date:

Tuesday, March 18, 2014

  Actual Average Record
Temperature  
Mean Temperature 36 °F -  
Max Temperature 48 °F 43 °F 77 °F (2012)
Min Temperature 24 °F 26 °F 11 °F (1993)
Degree Days  
Heating Degree Days 29    
Moisture  
Dew Point 24 °F    
Average Humidity 62    
Maximum Humidity 75    
Minimum Humidity 46    
Precipitation  
Precipitation 0.00 in - - ()
Sea Level Pressure  
Sea Level Pressure 29.99 in    
Wind  
Wind Speed 7 mph (East)    
Max Wind Speed 14 mph    
Max Gust Speed 20 mph    
Visibility 10 miles    
Events      
Averages and records for this station are not official NWS values.
T = Trace of Precipitation, MM = Missing Value Source: NWS Daily Summary

Daily Weather History Graph

Daily Weather History Graph

Search for Another Location

Airport or City:

Trip Planner

Search our weather history database for the weather conditions in past years. The results will help you decide how hot, cold, wet, or windy it might be!

Date:

Astronomy

Mar. 18, 2014 Rise Set
Actual Time 7:40 AM EDT 7:44 PM EDT
Civil Twilight 7:12 AM EDT 8:12 PM EDT
Nautical Twilight 6:40 AM EDT 8:44 PM EDT
Astronomical Twilight 6:07 AM EDT 9:18 PM EDT
Moon 10:03 PM EDT (3/18) 8:27 AM EDT (3/18)
Length of Visible Light 12h 59m
Length of Day
12h 03m
Waning Gibbous, 96% of the Moon is Illuminated
Mar 18
Waning Gibbous
Mar 23
Last Quarter
Mar 30
New
Apr 7
First Quarter
Apr 15
Full

Hourly Weather History & Observations

Time (EDT) Temp. Windchill Dew Point Humidity Pressure Visibility Wind Dir Wind Speed Gust Speed Precip Events Conditions
12:53 AM 25.0 °F 19.3 °F 14.0 °F 63% 29.98 in 10.0 mi ENE 4.6 mph - N/A   Clear
1:53 AM 24.1 °F 17.0 °F 15.1 °F 69% 29.99 in 10.0 mi ENE 5.8 mph - N/A   Clear
2:53 AM 24.1 °F 18.2 °F 16.0 °F 71% 29.98 in 10.0 mi ENE 4.6 mph - N/A   Clear
3:53 AM 27.0 °F 23.0 °F 18.0 °F 69% 29.98 in 10.0 mi East 3.5 mph - N/A   Overcast
4:53 AM 28.0 °F 24.2 °F 19.0 °F 69% 30.00 in 10.0 mi North 3.5 mph - N/A   Overcast
5:53 AM 27.0 °F 21.6 °F 18.0 °F 69% 30.00 in 10.0 mi ENE 4.6 mph - N/A   Scattered Clouds
6:53 AM 26.1 °F 20.5 °F 19.0 °F 75% 30.00 in 10.0 mi ENE 4.6 mph - N/A   Clear
7:53 AM 26.1 °F 20.5 °F 19.0 °F 75% 30.01 in 9.0 mi ENE 4.6 mph - N/A   Clear
8:53 AM 28.9 °F 23.9 °F 21.0 °F 72% 30.02 in 8.0 mi ENE 4.6 mph - N/A   Clear
9:53 AM 33.1 °F 27.7 °F 23.0 °F 66% 30.03 in 10.0 mi ESE 5.8 mph - N/A   Clear
10:53 AM 37.0 °F 32.4 °F 24.1 °F 59% 30.03 in 10.0 mi ESE 5.8 mph - N/A   Clear
11:53 AM 42.1 °F 36.6 °F 26.1 °F 53% 30.02 in 10.0 mi East 9.2 mph - N/A   Clear
12:53 PM 44.1 °F 39.5 °F 26.1 °F 49% 30.03 in 10.0 mi SSE 8.1 mph - N/A   Clear
1:53 PM 46.9 °F - 28.0 °F 48% 30.03 in 10.0 mi ESE 9.2 mph - N/A   Clear
2:53 PM 48.0 °F - 28.0 °F 46% 30.02 in 10.0 mi SE 10.4 mph - N/A   Clear
3:53 PM 46.0 °F 40.2 °F 28.0 °F 50% 30.01 in 8.0 mi SE 12.7 mph - N/A   Clear
4:53 PM 48.0 °F - 28.0 °F 46% 30.00 in 10.0 mi SSE 9.2 mph - N/A   Clear
5:53 PM 48.0 °F - 30.0 °F 50% 29.99 in 10.0 mi ESE 9.2 mph - N/A   Clear
6:53 PM 44.1 °F 38.6 °F 28.9 °F 55% 29.96 in 10.0 mi East 10.4 mph - N/A   Clear
7:53 PM 41.0 °F 34.3 °F 28.9 °F 62% 29.96 in 10.0 mi ESE 11.5 mph - N/A   Clear
8:53 PM 39.9 °F 33.4 °F 28.9 °F 65% 29.95 in 10.0 mi East 10.4 mph - N/A   Clear
9:53 PM 39.0 °F 31.0 °F 28.0 °F 65% 29.92 in 10.0 mi East 13.8 mph 19.6 mph N/A   Clear
10:53 PM 37.9 °F 29.6 °F 27.0 °F 65% 29.89 in 10.0 mi East 13.8 mph - N/A   Clear
11:53 PM 37.9 °F 30.9 °F 28.0 °F 68% 29.88 in 10.0 mi East 10.4 mph - N/A   Clear